[[{"header":{"parameterUnit":"m.s-1","parameterCategory":1,"la1":30.2991,"la2":30.254,"lo1":-89.0895,"lo2":-89.0444,"dy":0.0017,"dx":0.0017,"nx":28,"ny":28,"refTime":"2025-04-20T21:00:00:Z","depth":0,"parameterNumber":2,"parameterNumberName":"U-component_of_WINDS"},"data":[0,0,0,0,0,0,0,0,0,0,0,0,0,0,0,0,0,0,0,0,0,0,0,0,0,0,0,0,0,0,0,0,0,0,0,0,0,0,0,0,0,0,0,0,0,0,0,0,0,0,0,0,0,0,0,0,0,0,-2.9323,-2.9324,0,-2.9406,-2.9407,-2.9408,-2.9415,-2.9415,-2.9414,-2.9413,-2.9496,-2.9499,-2.9502,0,0,0,0,0,0,0,0,0,0,0,0,0,-2.9169,-2.9172,-2.9323,-2.9324,-2.9325,-2.9406,-2.9407,-2.9408,-2.9416,-2.9415,-2.9414,-2.9413,-2.9495,-2.9499,-2.9502,0,0,0,0,0,0,0,0,0,0,0,0,0,-2.9242,-2.9173,-2.9322,-2.9338,-2.9341,-2.9405,-2.9407,-2.9408,-2.9416,-2.9415,-2.9413,-2.9412,-2.9494,-2.9498,-2.9503,-2.9557,0,0,-2.9517,-2.9519,0,0,0,0,0,0,0,0,-2.9238,-2.9248,-2.9335,-2.9337,-2.934,-2.9399,-2.9383,-2.9458,-2.9416,-2.9387,-2.9413,-2.9411,-2.9465,-2.9471,-2.949,-2.9561,-2.9564,-2.9517,-2.952,-2.9522,-2.9523,0,0,0,0,0,0,0,-2.9233,-2.9244,-2.9355,-2.9336,-2.9339,-2.9341,-2.935,-2.9397,-2.9432,-2.939,-2.939,-2.94,-2.9466,-2.9485,-2.9492,-2.9565,-2.9517,-2.9521,-2.9524,-2.9525,-2.9684,-2.9685,0,0,0,0,0,0,-2.9225,-2.924,-2.9353,-2.9358,-2.9285,-2.9345,-2.9355,-2.9381,-2.9432,-2.9438,-2.9401,-2.94,-2.9478,-2.9487,-2.9495,-2.956,-2.9522,-2.9526,-2.9528,-2.9683,-2.9684,-2.9686,0,0,0,0,0,0,-2.9222,-2.9235,-2.9349,-2.9299,-2.9314,-2.9349,-2.9379,-2.9384,-2.9403,-2.9441,-2.9447,-2.9415,-2.9478,-2.9488,-2.9541,-2.9563,-2.9528,-2.9532,-2.9681,-2.9683,-2.9685,-2.9692,0,0,0,0,0,0,-2.9217,-2.9234,-2.9255,-2.93,-2.9317,-2.9395,-2.938,-2.9386,-2.9411,-2.9411,-2.9455,-2.9461,-2.9478,-2.9534,-2.9546,-2.9569,-2.9536,-2.9679,-2.9682,-2.9684,-2.969,-2.9695,-2.9698,0,0,0,0,0,-2.9212,-2.9253,-2.9256,-2.927,-2.9344,-2.9396,-2.9406,-2.9424,-2.9413,-2.9434,-2.9458,-2.946,-2.956,-2.954,-2.9553,-2.9577,-2.9678,-2.9681,-2.9684,-2.9688,-2.9694,-2.9698,0,0,0,0,0,0,-2.9209,-2.9259,-2.9263,-2.932,-2.9354,-2.9397,-2.9424,-2.9429,-2.9466,-2.9464,-2.9485,-2.9495,-2.9547,-2.9568,-2.9545,-2.9632,-2.9617,-2.9623,-2.9616,-2.9622,-2.9625,-2.9618,-2.9539,0,0,0,0,0,-2.9216,-2.9255,-2.9296,-2.9343,-2.936,-2.9389,-2.9413,-2.9424,-2.946,-2.9474,-2.9502,-2.9535,-2.9574,-2.96,-2.9638,-2.9694,-2.9703,-2.9718,-2.9722,-2.9725,-2.9729,-2.976,-2.9766,-2.9697,-2.9697,-2.9697,0,0,-2.9229,-2.9261,-2.9284,-2.9343,-2.9371,-2.941,-2.9401,-2.9443,-2.9472,-2.948,-2.9531,-2.9553,-2.9592,-2.9647,-2.9672,-2.9666,-2.9751,-2.9729,-2.9731,-2.9734,-2.9764,-2.977,-2.9776,-2.9699,-2.9699,-2.9699,0,0,-2.9272,-2.9301,-2.9343,-2.9371,-2.9413,-2.9432,-2.9442,-2.9485,-2.95,-2.9552,-2.9559,-2.9594,-2.9661,-2.9688,-2.9711,-2.9766,-2.9768,-2.9778,-2.9798,-2.9828,-2.9833,-2.9838,-2.9856,-2.9862,-2.9783,-2.9783,-2.9783,0,-2.9282,-2.9342,-2.9363,-2.9405,-2.943,-2.9441,-2.9482,-2.9509,-2.956,-2.9577,-2.957,-2.9654,-2.9682,-2.9742,-2.9756,-2.9774,-2.9786,-2.9772,-2.9831,-2.9836,-2.9841,-2.9858,-2.9865,-2.9783,-2.9783,-2.9783,-2.9783,0,-2.9352,-2.9394,-2.9422,-2.9473,-2.9502,-2.9543,-2.957,-2.9597,-2.9606,-2.9626,-2.9679,-2.9713,-2.9757,-2.9773,-2.9783,-2.9835,-2.983,-2.9827,-2.9811,-2.9848,-2.9864,-2.9871,-2.9785,-2.9784,-2.9784,-2.9784,0,0,-2.9394,-2.9457,-2.9467,-2.9489,-2.9537,-2.9569,-2.9611,-2.9656,-2.9678,-2.9714,-2.9749,-2.9806,-2.9803,-2.9829,-2.9842,-2.9868,-2.9908,-2.9862,-2.9863,-2.9867,-2.9967,-2.9967,-2.9975,-2.9911,-2.9912,-2.9913,-2.9963,0,-2.9441,-2.9517,-2.9537,-2.9601,-2.9638,-2.965,-2.9686,-2.9719,-2.974,-2.9775,-2.9797,-2.9837,-2.9831,-2.9846,-2.9873,-2.9897,-2.9928,-2.9894,-2.9942,-2.9943,-2.9929,-2.9984,-2.9985,-3.0029,-2.9969,-2.9971,-2.9971,0,-2.9506,-2.9544,-2.9611,-2.9654,-2.967,-2.9703,-2.9745,-2.9779,-2.9816,-2.9829,-2.9859,-2.987,-2.9913,-2.9898,-2.9958,-2.9935,-2.9956,-2.9971,-2.9973,-2.9976,-2.9958,-2.9986,-3.0044,-3.005,-2.9982,-2.9981,-2.9981,0,-2.9527,-2.9595,-2.9644,-2.9664,-2.9715,-2.9738,-2.976,-2.9797,-2.9822,-2.9859,-2.9876,-2.9918,-2.994,-2.9972,-2.9993,-2.998,-3.0051,-3.0038,-3.0062,-3.0061,-3.0074,-3.0072,-3.0134,-3.0091,-3.0091,-3.0091,-3.0091,0,-2.9577,-2.9617,-2.9655,-2.9684,-2.973,-2.9753,-2.9798,-2.982,-2.9853,-2.9887,-2.99,-2.9931,-2.9959,-2.9994,-3.0012,-3.0058,-3.0068,-3.0079,-3.0083,-3.0077,-3.0075,-3.0089,-3.0086,-3.0093,-3.0092,-3.0092,-3.0092,0,-2.9607,-2.9635,-2.9688,-2.9733,-2.9745,-2.9777,-2.9815,-2.9844,-2.9866,-2.9908,-2.992,-2.9954,-2.9996,-3.0021,-3.0074,-3.0086,-3.0137,-3.014,-3.0124,-3.0125,-3.0147,-3.0144,-3.0218,-3.0228,-3.018,-3.0181,-3.0181,0,-2.9636,-2.9667,-2.9716,-2.974,-2.9763,-2.9801,-2.9827,-2.9852,-2.9879,-2.9924,-2.9948,-2.9991,-3.0027,-3.0093,-3.0122,-3.0163,-3.0166,-3.019,-3.0172,-3.0165,-3.0164,-3.0161,-3.0164,-3.0191,-3.0192,-3.0192,-3.0192,0,-2.9683,-2.9695,-2.9733,-2.9775,-2.9806,-2.984,-2.9875,-2.9894,-2.9924,-2.9953,-2.9997,-3.0025,-3.0079,-3.0122,-3.0165,-3.0188,-3.0195,-3.0198,-3.0205,-3.0198,-3.0187,-3.0192,-3.0129,-3.0196,-3.0195,-3.0195,-3.0195,-3.0195,-2.9712,-2.974,-2.9779,-2.982,-2.9849,-2.9881,-2.991,-2.9936,-2.9973,-3.0019,-3.0032,-3.0077,-3.0115,-3.0174,-3.0198,-3.0233,-3.0229,-3.024,-3.0243,-3.0245,-3.0244,-3.0183,-3.0241,-3.0241,-3.0241,-3.0241,-3.0241,0,-2.9759,-2.9784,-2.9822,-2.987,-2.9902,-2.9908,-2.9946,-2.9973,-3.0012,-3.0047,-3.0082,-3.0132,-3.0173,-3.0206,-3.0248,-3.027,-3.0274,-3.028,-3.0278,-3.0283,-3.0246,-3.0234,-3.0276,-3.0276,-3.0276,-3.0276,-3.0276,-3.0276,-2.9786,-2.9834,-2.9851,-2.9912,-2.9938,-2.9982,-3.0004,-3.0033,-3.006,-3.0116,-3.015,-3.0172,-3.0205,-3.025,-3.0288,-3.0297,-3.0311,-3.0316,-3.0325,-3.0289,-3.0285,-3.0281,-3.0271,-3.0319,-3.0319,-3.0358,-3.0358,-3.0359]},{"header":{"parameterUnit":"m.s-1","parameterCategory":1,"la1":30.2991,"la2":30.254,"lo1":-89.0895,"lo2":-89.0444,"dy":0.0017,"dx":0.0017,"nx":28,"ny":28,"refTime":"2025-04-20T21:00:00:Z","depth":0,"parameterNumber":3,"parameterNumberName":"V-component_of_WINDS"},"data":[0,0,0,0,0,0,0,0,0,0,0,0,0,0,0,0,0,0,0,0,0,0,0,0,0,0,0,0,0,0,0,0,0,0,0,0,0,0,0,0,0,0,0,0,0,0,0,0,0,0,0,0,0,0,0,0,0,0,3.9198,3.9198,0,3.9217,3.9217,3.9217,3.9228,3.9228,3.9228,3.9228,3.9245,3.9245,3.9245,0,0,0,0,0,0,0,0,0,0,0,0,0,3.917,3.917,3.9198,3.9198,3.9198,3.9217,3.9217,3.9217,3.9228,3.9228,3.9228,3.9228,3.9244,3.9245,3.9245,0,0,0,0,0,0,0,0,0,0,0,0,0,3.9185,3.9171,3.9198,3.9206,3.9207,3.9217,3.9217,3.9217,3.9228,3.9228,3.9228,3.9228,3.9244,3.9245,3.9245,3.9248,0,0,3.9247,3.9248,0,0,0,0,0,0,0,0,3.9184,3.9186,3.9204,3.9205,3.9206,3.922,3.9213,3.9227,3.9228,3.922,3.9228,3.9228,3.9236,3.9237,3.9241,3.9248,3.9249,3.9247,3.9248,3.9248,3.9248,0,0,0,0,0,0,0,3.9183,3.9185,3.9205,3.9205,3.9206,3.9208,3.9211,3.9216,3.9227,3.9221,3.9221,3.9224,3.9237,3.924,3.9241,3.9249,3.9247,3.9248,3.9248,3.9248,3.9262,3.9262,0,0,0,0,0,0,3.9181,3.9184,3.9204,3.9206,3.9195,3.9209,3.9211,3.9216,3.9227,3.9229,3.9224,3.9224,3.9239,3.9241,3.9242,3.9247,3.9248,3.9248,3.9249,3.9262,3.9262,3.9262,0,0,0,0,0,0,3.918,3.9182,3.9204,3.9195,3.9198,3.9209,3.9214,3.9216,3.9219,3.923,3.9231,3.9225,3.9239,3.9241,3.9247,3.9247,3.9249,3.9249,3.9262,3.9262,3.9262,3.9255,0,0,0,0,0,0,3.9179,3.9182,3.9183,3.9195,3.9198,3.9208,3.9214,3.9216,3.9221,3.9222,3.9231,3.9233,3.9239,3.9246,3.9247,3.9248,3.925,3.9262,3.9262,3.9262,3.9255,3.9255,3.9254,0,0,0,0,0,3.9178,3.9179,3.9183,3.9185,3.92,3.9208,3.921,3.9218,3.9221,3.9222,3.9229,3.9233,3.9247,3.9246,3.9248,3.9249,3.9262,3.9262,3.9262,3.9255,3.9255,3.9254,0,0,0,0,0,0,3.9164,3.9181,3.9185,3.919,3.9198,3.921,3.9212,3.9217,3.9224,3.9224,3.9233,3.9235,3.9241,3.9245,3.9244,3.9253,3.9255,3.9256,3.9249,3.9249,3.9249,3.9247,3.925,0,0,0,0,0,3.9163,3.9169,3.9182,3.9185,3.9189,3.92,3.9204,3.921,3.9218,3.9221,3.9228,3.9236,3.9242,3.9246,3.9252,3.9256,3.9259,3.9258,3.9258,3.9257,3.9257,3.9262,3.9262,3.9262,3.9262,3.9262,0,0,3.9157,3.9167,3.917,3.9183,3.919,3.9196,3.9202,3.9208,3.9213,3.9222,3.9228,3.9234,3.9243,3.9249,3.9251,3.9253,3.9258,3.9257,3.9257,3.9257,3.9262,3.9262,3.9262,3.9262,3.9262,3.9262,0,0,3.9152,3.9159,3.9164,3.9171,3.9183,3.919,3.9192,3.9204,3.9209,3.9216,3.9223,3.9229,3.9239,3.9246,3.9251,3.9251,3.9256,3.9253,3.925,3.9255,3.9255,3.9255,3.9256,3.9256,3.9253,3.9253,3.9253,0,3.9143,3.9154,3.9165,3.9171,3.9177,3.9188,3.9192,3.9199,3.9211,3.9215,3.9217,3.9232,3.9238,3.9247,3.9247,3.925,3.9252,3.9251,3.9254,3.9254,3.9254,3.9255,3.9256,3.9253,3.9253,3.9253,3.9253,0,3.9144,3.9152,3.9154,3.9168,3.9174,3.9179,3.9191,3.9196,3.9202,3.921,3.9218,3.9227,3.9236,3.9239,3.9244,3.9248,3.9249,3.9252,3.9255,3.9254,3.9255,3.9256,3.9252,3.9252,3.9252,3.9253,0,0,3.9128,3.915,3.9151,3.9158,3.9173,3.9179,3.9186,3.9196,3.9201,3.921,3.9216,3.9226,3.923,3.9236,3.9242,3.9246,3.9247,3.9249,3.9249,3.9249,3.9255,3.9252,3.9253,3.9251,3.9251,3.9251,3.9254,0,3.9125,3.9138,3.9149,3.9158,3.9166,3.9178,3.9184,3.9194,3.9202,3.9209,3.9218,3.9225,3.9229,3.9233,3.9238,3.9246,3.9249,3.9246,3.9257,3.9257,3.9254,3.9253,3.925,3.9252,3.9255,3.9255,3.9255,0,3.9122,3.9133,3.9143,3.916,3.9163,3.9169,3.9181,3.9188,3.92,3.9206,3.9214,3.9221,3.9229,3.9232,3.9243,3.9242,3.9247,3.9252,3.9252,3.9253,3.9256,3.9254,3.9253,3.9254,3.9256,3.9256,3.9256,0,3.911,3.9127,3.9136,3.9142,3.9161,3.9165,3.9173,3.9186,3.9192,3.9203,3.9207,3.9218,3.9224,3.9232,3.9243,3.9243,3.9254,3.9257,3.9259,3.9259,3.926,3.926,3.926,3.9263,3.9263,3.9263,3.9263,0,3.9105,3.9111,3.9132,3.9137,3.9145,3.9158,3.9166,3.9174,3.9186,3.9194,3.9204,3.9211,3.9224,3.9233,3.9241,3.9251,3.9253,3.9258,3.926,3.9257,3.9256,3.926,3.926,3.9263,3.9263,3.9263,3.9263,0,3.9092,3.9106,3.9117,3.9136,3.9141,3.9146,3.9162,3.9168,3.9178,3.9187,3.919,3.9205,3.9217,3.9228,3.9243,3.9248,3.9258,3.926,3.9254,3.9255,3.9257,3.9257,3.9259,3.9261,3.9263,3.9263,3.9263,0,3.9088,3.9094,3.9114,3.9121,3.9129,3.9139,3.9147,3.9161,3.9169,3.9185,3.9189,3.9202,3.9212,3.9229,3.9241,3.9253,3.9256,3.9257,3.9258,3.9256,3.9257,3.9257,3.9258,3.9256,3.9256,3.9255,3.9255,0,3.908,3.9087,3.9098,3.9113,3.9123,3.9134,3.9146,3.9151,3.9167,3.9175,3.9188,3.9196,3.9213,3.9225,3.9239,3.9247,3.9254,3.9255,3.9257,3.9253,3.925,3.9253,3.9253,3.9255,3.9255,3.9255,3.9255,3.9255,3.9071,3.9078,3.9094,3.9107,3.9118,3.913,3.9137,3.9149,3.916,3.9176,3.9184,3.9196,3.9211,3.923,3.9238,3.9249,3.9251,3.9252,3.9253,3.9253,3.9253,3.9249,3.9251,3.9251,3.9251,3.9251,3.9251,0,3.9064,3.9076,3.9088,3.9106,3.9116,3.9124,3.9139,3.9147,3.9158,3.9172,3.9183,3.9198,3.9211,3.9225,3.9239,3.9245,3.9249,3.9248,3.9247,3.925,3.9249,3.9247,3.9245,3.9245,3.9245,3.9245,3.9245,3.9245,3.9062,3.9073,3.9083,3.9101,3.9113,3.9127,3.9135,3.9146,3.9157,3.9174,3.9186,3.9195,3.9209,3.9225,3.9237,3.9241,3.9246,3.9245,3.9249,3.9249,3.9249,3.925,3.9248,3.9245,3.9245,3.9249,3.9249,3.9249]}]]